Time,TemperatureF,DewpointF,PressureIn,WindDirection,WindDirectionDegrees,WindSpeedMPH,WindSpeedGustMPH,Humidity,HourlyPrecipIn,Conditions,Clouds,dailyrainin,SoftwareType,DateUTC
2013-06-27 07:47:00,76.6,74.1,29.84,WSW,244,3.0,9.0,92,0.00,,,0.07,Wunderground v.1.15,2013-06-27 12:47:00,
2013-06-27 07:48:00,76.7,73.9,29.84,West,267,3.0,9.0,91,0.00,,,0.07,Wunderground v.1.15,2013-06-27 12:48:00,
2013-06-27 07:49:00,76.8,74.0,29.84,WSW,240,3.0,9.0,91,0.00,,,0.07,Wunderground v.1.15,2013-06-27 12:49:00,
2013-06-27 07:54:00,77.2,74.4,29.84,WSW,248,3.0,9.0,91,0.00,,,0.07,Wunderground v.1.15,2013-06-27 12:54:00,
2013-06-27 08:01:00,77.5,74.3,29.84,West,264,3.0,5.0,90,0.00,,,0.07,Wunderground v.1.15,2013-06-27 13:01:00,
2013-06-27 08:06:00,77.7,74.2,29.84,West,264,4.0,5.0,89,0.00,,,0.07,Wunderground v.1.15,2013-06-27 13:06:00,
2013-06-27 08:13:00,78.1,74.6,29.85,WSW,248,4.0,5.0,89,0.00,,,0.07,Wunderground v.1.15,2013-06-27 13:13:00,
2013-06-27 08:18:00,78.4,74.9,29.85,West,273,4.0,5.0,89,0.00,,,0.07,Wunderground v.1.15,2013-06-27 13:18:00,
2013-06-27 08:23:00,78.7,75.2,29.85,WSW,255,4.0,6.0,89,0.00,,,0.07,Wunderground v.1.15,2013-06-27 13:23:00,
2013-06-27 08:28:00,79.2,75.3,29.85,West,273,3.0,6.0,88,0.00,,,0.07,Wunderground v.1.15,2013-06-27 13:28:00,
2013-06-27 08:33:00,79.5,75.6,29.85,WSW,255,3.0,5.0,88,0.00,,,0.07,Wunderground v.1.15,2013-06-27 13:33:00,
2013-06-27 08:58:00,81.6,76.3,29.85,SW,232,4.0,6.0,84,0.00,,,0.07,Wunderground v.1.15,2013-06-27 13:58:00,
2013-06-27 09:04:00,81.7,76.7,29.86,West,270,5.0,6.0,85,0.00,,,0.07,Wunderground v.1.15,2013-06-27 14:04:00,
2013-06-27 09:09:00,82.1,76.8,29.85,SW,222,4.0,6.0,84,0.00,,,0.07,Wunderground v.1.15,2013-06-27 14:09:00,
2013-06-27 09:15:00,82.4,76.7,29.85,SW,229,4.0,5.0,83,0.00,,,0.07,Wunderground v.1.15,2013-06-27 14:15:00,
2013-06-27 09:20:00,82.7,77.0,29.85,West,261,5.0,5.0,83,0.00,,,0.07,Wunderground v.1.15,2013-06-27 14:20:00,
2013-06-27 09:25:00,83.0,77.7,29.85,WSW,257,4.0,6.0,84,0.00,,,0.07,Wunderground v.1.15,2013-06-27 14:25:00,
2013-06-27 09:30:00,83.1,77.0,29.85,West,279,4.0,6.0,82,0.00,,,0.07,Wunderground v.1.15,2013-06-27 14:30:00,
2013-06-27 09:36:00,83.3,77.2,29.85,SW,227,4.0,6.0,82,0.00,,,0.07,Wunderground v.1.15,2013-06-27 14:36:00,
2013-06-27 09:42:00,83.6,77.5,29.85,WSW,242,4.0,4.0,82,0.00,,,0.07,Wunderground v.1.15,2013-06-27 14:42:00,
2013-06-27 09:47:00,84.0,77.9,29.85,West,273,4.0,5.0,82,0.00,,,0.07,Wunderground v.1.15,2013-06-27 14:47:00,
2013-06-27 09:55:00,84.3,77.1,29.85,West,263,4.0,4.0,79,0.00,,,0.07,Wunderground v.1.15,2013-06-27 14:55:00,
2013-06-27 10:00:00,84.7,77.5,29.86,WSW,252,4.0,6.0,79,0.00,,,0.07,Wunderground v.1.15,2013-06-27 15:00:00,
2013-06-27 10:06:00,85.1,77.8,29.85,SW,227,4.0,7.0,79,0.00,,,0.07,Wunderground v.1.15,2013-06-27 15:06:00,
2013-06-27 10:11:00,85.4,77.8,29.86,SW,232,3.0,4.0,78,0.00,,,0.07,Wunderground v.1.15,2013-06-27 15:11:00,
2013-06-27 10:17:00,86.0,77.9,29.85,WSW,240,3.0,4.0,77,0.00,,,0.07,Wunderground v.1.15,2013-06-27 15:17:00,
2013-06-27 10:23:00,86.1,78.0,29.85,West,261,3.0,5.0,77,0.00,,,0.07,Wunderground v.1.15,2013-06-27 15:23:00,
2013-06-27 10:29:00,86.2,77.7,29.85,WSW,243,4.0,5.0,76,0.00,,,0.07,Wunderground v.1.15,2013-06-27 15:29:00,
2013-06-27 10:35:00,86.5,77.6,29.85,SW,236,4.0,7.0,75,0.00,,,0.07,Wunderground v.1.15,2013-06-27 15:35:00,
2013-06-27 10:41:00,86.7,77.8,29.85,SE,144,4.0,5.0,75,0.00,,,0.07,Wunderground v.1.15,2013-06-27 15:41:00,
2013-06-27 10:47:00,86.8,77.1,29.85,SW,225,4.0,8.0,73,0.00,,,0.07,Wunderground v.1.15,2013-06-27 15:47:00,
2013-06-27 10:52:00,86.6,76.9,29.85,WSW,250,5.0,6.0,73,0.00,,,0.07,Wunderground v.1.15,2013-06-27 15:52:00,
2013-06-27 10:57:00,86.5,77.6,29.85,SW,234,4.0,6.0,75,0.00,,,0.07,Wunderground v.1.15,2013-06-27 15:57:00,
2013-06-27 11:02:00,86.6,77.7,29.85,WSW,243,4.0,4.0,75,0.00,,,0.07,Wunderground v.1.15,2013-06-27 16:02:00,
2013-06-27 11:07:00,86.7,77.4,29.84,West,264,4.0,5.0,74,0.00,,,0.07,Wunderground v.1.15,2013-06-27 16:07:00,
2013-06-27 11:12:00,86.5,76.8,29.84,WSW,243,4.0,8.0,73,0.00,,,0.07,Wunderground v.1.15,2013-06-27 16:12:00,
2013-06-27 11:18:00,86.9,77.6,29.84,West,259,4.0,8.0,74,0.00,,,0.07,Wunderground v.1.15,2013-06-27 16:18:00,
2013-06-27 11:23:00,87.2,76.6,29.84,SW,232,5.0,7.0,71,0.00,,,0.07,Wunderground v.1.15,2013-06-27 16:23:00,
2013-06-27 11:28:00,87.3,77.2,29.84,SW,217,5.0,8.0,72,0.00,,,0.07,Wunderground v.1.15,2013-06-27 16:28:00,
2013-06-27 11:59:00,88.7,75.0,29.84,SW,223,5.0,7.0,64,0.00,,,0.07,Wunderground v.1.15,2013-06-27 16:59:00,
2013-06-27 12:04:00,88.6,74.9,29.84,WSW,248,7.0,8.0,64,0.00,,,0.07,Wunderground v.1.15,2013-06-27 17:04:00,
2013-06-27 12:09:00,88.8,76.0,29.84,WSW,250,6.0,8.0,66,0.00,,,0.07,Wunderground v.1.15,2013-06-27 17:09:00,
2013-06-27 12:15:00,88.9,75.6,29.84,SSW,199,5.0,8.0,65,0.00,,,0.07,Wunderground v.1.15,2013-06-27 17:15:00,
2013-06-27 12:20:00,89.5,75.7,29.84,WSW,250,5.0,6.0,64,0.00,,,0.07,Wunderground v.1.15,2013-06-27 17:20:00,
2013-06-27 12:25:00,89.6,74.9,29.85,WNW,302,5.0,7.0,62,0.00,,,0.07,Wunderground v.1.15,2013-06-27 17:25:00,
2013-06-27 12:30:00,89.8,75.0,29.84,SW,226,5.0,5.0,62,0.00,,,0.07,Wunderground v.1.15,2013-06-27 17:30:00,
2013-06-27 12:35:00,90.1,75.8,29.85,SW,234,5.0,7.0,63,0.00,,,0.07,Wunderground v.1.15,2013-06-27 17:35:00,
2013-06-27 12:42:00,89.9,74.6,29.85,SSW,199,5.0,8.0,61,0.00,,,0.07,Wunderground v.1.15,2013-06-27 17:42:00,
2013-06-27 12:47:00,89.8,73.6,29.84,WSW,246,5.0,8.0,59,0.00,,,0.07,Wunderground v.1.15,2013-06-27 17:47:00,
2013-06-27 12:53:00,89.9,73.7,29.84,West,263,5.0,9.0,59,0.00,,,0.07,Wunderground v.1.15,2013-06-27 17:53:00,
2013-06-27 13:00:00,89.7,74.0,29.84,WSW,246,6.0,6.0,60,0.00,,,0.07,Wunderground v.1.15,2013-06-27 18:00:00,
2013-06-27 13:06:00,90.1,74.3,29.85,SW,225,5.0,6.0,60,0.00,,,0.07,Wunderground v.1.15,2013-06-27 18:06:00,
2013-06-27 13:12:00,90.2,73.9,29.85,WNW,286,5.0,6.0,59,0.00,,,0.07,Wunderground v.1.15,2013-06-27 18:12:00,
2013-06-27 13:17:00,90.2,74.4,29.85,West,270,5.0,6.0,60,0.00,,,0.07,Wunderground v.1.15,2013-06-27 18:17:00,
2013-06-27 13:23:00,90.6,75.3,29.85,WSW,246,5.0,7.0,61,0.00,,,0.07,Wunderground v.1.15,2013-06-27 18:23:00,
2013-06-27 13:28:00,90.3,73.0,29.85,SW,216,5.0,11.0,57,0.00,,,0.07,Wunderground v.1.15,2013-06-27 18:28:00,
2013-06-27 13:33:00,90.2,72.4,29.85,WSW,238,6.0,9.0,56,0.00,,,0.07,Wunderground v.1.15,2013-06-27 18:33:00,
2013-06-27 13:38:00,90.2,72.9,29.85,SW,229,6.0,9.0,57,0.00,,,0.07,Wunderground v.1.15,2013-06-27 18:38:00,
2013-06-27 14:14:00,90.6,73.8,29.85,SW,230,5.0,8.0,58,0.00,,,0.07,Wunderground v.1.15,2013-06-27 19:14:00,
2013-06-27 14:19:00,90.4,74.6,29.85,West,274,5.0,8.0,60,0.00,,,0.07,Wunderground v.1.15,2013-06-27 19:19:00,
2013-06-27 14:25:00,90.2,74.9,29.85,WSW,254,5.0,5.0,61,0.00,,,0.07,Wunderground v.1.15,2013-06-27 19:25:00,
2013-06-27 14:30:00,90.3,74.5,29.85,WSW,239,6.0,8.0,60,0.00,,,0.07,Wunderground v.1.15,2013-06-27 19:30:00,
2013-06-27 14:36:00,90.5,74.2,29.85,SW,229,5.0,8.0,59,0.00,,,0.07,Wunderground v.1.15,2013-06-27 19:36:00,
2013-06-27 14:41:00,90.6,74.8,29.85,SSW,210,5.0,8.0,60,0.00,,,0.07,Wunderground v.1.15,2013-06-27 19:41:00,
2013-06-27 14:46:00,90.5,74.7,29.85,West,262,5.0,6.0,60,0.00,,,0.07,Wunderground v.1.15,2013-06-27 19:46:00,
2013-06-27 14:51:00,90.5,75.2,29.85,WSW,238,5.0,8.0,61,0.00,,,0.07,Wunderground v.1.15,2013-06-27 19:51:00,
2013-06-27 14:56:00,90.6,74.8,29.85,West,270,5.0,8.0,60,0.00,,,0.07,Wunderground v.1.15,2013-06-27 19:56:00,
2013-06-27 15:02:00,90.7,74.9,29.85,WSW,238,4.0,6.0,60,0.00,,,0.07,Wunderground v.1.15,2013-06-27 20:02:00,
2013-06-27 15:07:00,90.8,75.0,29.85,WSW,238,4.0,7.0,60,0.00,,,0.07,Wunderground v.1.15,2013-06-27 20:07:00,
2013-06-27 15:13:00,90.7,75.4,29.85,WSW,254,5.0,6.0,61,0.00,,,0.07,Wunderground v.1.15,2013-06-27 20:13:00,
2013-06-27 15:19:00,90.5,75.2,29.85,WSW,254,5.0,6.0,61,0.00,,,0.07,Wunderground v.1.15,2013-06-27 20:19:00,
2013-06-27 15:24:00,90.2,74.4,29.85,SW,215,5.0,5.0,60,0.00,,,0.07,Wunderground v.1.15,2013-06-27 20:24:00,
2013-06-27 15:29:00,90.5,75.2,29.85,WSW,256,4.0,7.0,61,0.00,,,0.07,Wunderground v.1.15,2013-06-27 20:29:00,
2013-06-27 15:35:00,90.6,74.8,29.85,SW,233,5.0,7.0,60,0.00,,,0.07,Wunderground v.1.15,2013-06-27 20:35:00,
2013-06-27 15:41:00,90.8,74.5,29.85,SW,232,5.0,9.0,59,0.00,,,0.07,Wunderground v.1.15,2013-06-27 20:41:00,
2013-06-27 15:46:00,90.9,72.5,29.85,SW,218,5.0,10.0,55,0.00,,,0.07,Wunderground v.1.15,2013-06-27 20:46:00,
2013-06-27 15:52:00,91.0,72.6,29.85,SSW,197,6.0,6.0,55,0.00,,,0.07,Wunderground v.1.15,2013-06-27 20:52:00,
2013-06-27 15:57:00,91.1,72.7,29.85,SSW,210,5.0,6.0,55,0.00,,,0.07,Wunderground v.1.15,2013-06-27 20:57:00,
2013-06-27 16:03:00,91.1,74.8,29.84,SW,231,5.0,5.0,59,0.00,,,0.07,Wunderground v.1.15,2013-06-27 21:03:00,
2013-06-27 16:08:00,91.0,74.7,29.84,SSW,209,5.0,7.0,59,0.00,,,0.07,Wunderground v.1.15,2013-06-27 21:08:00,
2013-06-27 16:14:00,90.9,75.1,29.84,WSW,239,5.0,5.0,60,0.00,,,0.07,Wunderground v.1.15,2013-06-27 21:14:00,
2013-06-27 16:19:00,90.9,73.6,29.84,SW,220,5.0,7.0,57,0.00,,,0.07,Wunderground v.1.15,2013-06-27 21:19:00,
2013-06-27 16:24:00,90.9,74.1,29.84,WSW,248,5.0,7.0,58,0.00,,,0.07,Wunderground v.1.15,2013-06-27 21:24:00,
2013-06-27 16:43:00,91.1,72.1,29.84,SW,230,5.0,5.0,54,0.00,,,0.07,Wunderground v.1.15,2013-06-27 21:43:00,
2013-06-27 16:48:00,91.1,72.1,29.84,West,276,5.0,5.0,54,0.00,,,0.07,Wunderground v.1.15,2013-06-27 21:48:00,
2013-06-27 16:54:00,90.9,71.4,29.84,SSW,210,5.0,5.0,53,0.00,,,0.07,Wunderground v.1.15,2013-06-27 21:54:00,
2013-06-27 16:59:00,90.7,71.2,29.84,West,261,5.0,9.0,53,0.00,,,0.07,Wunderground v.1.15,2013-06-27 21:59:00,
2013-06-27 17:04:00,90.5,71.6,29.84,South,176,6.0,7.0,54,0.00,,,0.07,Wunderground v.1.15,2013-06-27 22:04:00,
2013-06-27 17:09:00,90.7,72.8,29.84,SW,229,5.0,5.0,56,0.00,,,0.07,Wunderground v.1.15,2013-06-27 22:09:00,
2013-06-27 17:15:00,90.8,73.5,29.84,WSW,250,4.0,6.0,57,0.00,,,0.07,Wunderground v.1.15,2013-06-27 22:15:00,
2013-06-27 17:22:00,90.8,73.5,29.84,SW,220,4.0,4.0,57,0.00,,,0.07,Wunderground v.1.15,2013-06-27 22:22:00,
2013-06-27 17:27:00,90.5,72.7,29.84,WNW,292,5.0,6.0,56,0.00,,,0.07,Wunderground v.1.15,2013-06-27 22:27:00,
2013-06-27 17:33:00,90.6,73.3,29.83,WSW,254,5.0,6.0,57,0.00,,,0.07,Wunderground v.1.15,2013-06-27 22:33:00,
2013-06-27 17:38:00,90.4,72.6,29.83,WSW,240,4.0,8.0,56,0.00,,,0.07,Wunderground v.1.15,2013-06-27 22:38:00,
2013-06-27 17:44:00,90.2,73.4,29.83,WSW,255,5.0,5.0,58,0.00,,,0.07,Wunderground v.1.15,2013-06-27 22:44:00,
2013-06-27 17:50:00,90.2,72.9,29.83,SW,220,4.0,4.0,57,0.00,,,0.07,Wunderground v.1.15,2013-06-27 22:50:00,
2013-06-27 17:56:00,90.1,72.8,29.82,WSW,242,4.0,6.0,57,0.00,,,0.07,Wunderground v.1.15,2013-06-27 22:56:00,
2013-06-27 18:02:00,90.1,72.8,29.82,WSW,243,4.0,5.0,57,0.00,,,0.07,Wunderground v.1.15,2013-06-27 23:02:00,
2013-06-27 18:07:00,89.8,72.5,29.83,WSW,254,4.0,6.0,57,0.00,,,0.07,Wunderground v.1.15,2013-06-27 23:07:00,
2013-06-27 18:12:00,89.7,73.5,29.82,WSW,257,4.0,4.0,59,0.00,,,0.07,Wunderground v.1.15,2013-06-27 23:12:00,
2013-06-27 18:18:00,89.6,73.4,29.83,WSW,249,4.0,5.0,59,0.00,,,0.07,Wunderground v.1.15,2013-06-27 23:18:00,
2013-06-27 18:24:00,89.5,73.8,29.82,WSW,248,3.0,5.0,60,0.00,,,0.07,Wunderground v.1.15,2013-06-27 23:24:00,
2013-06-27 18:48:00,87.5,73.3,29.83,WSW,246,3.0,4.0,63,0.00,,,0.07,Wunderground v.1.15,2013-06-27 23:48:00,
2013-06-27 18:54:00,87.2,74.0,29.82,WSW,253,2.0,4.0,65,0.00,,,0.07,Wunderground v.1.15,2013-06-27 23:54:00,
2013-06-27 19:00:00,86.9,73.3,29.83,WSW,247,3.0,3.0,64,0.00,,,0.07,Wunderground v.1.15,2013-06-28 00:00:00,
2013-06-27 19:06:00,86.7,73.5,29.83,WSW,238,3.0,4.0,65,0.00,,,0.07,Wunderground v.1.15,2013-06-28 00:06:00,
2013-06-27 19:11:00,86.5,73.8,29.83,WSW,255,2.0,3.0,66,0.00,,,0.07,Wunderground v.1.15,2013-06-28 00:11:00,
2013-06-27 19:17:00,86.3,74.0,29.83,WSW,237,2.0,3.0,67,0.00,,,0.07,Wunderground v.1.15,2013-06-28 00:17:00,
2013-06-27 19:22:00,85.9,74.5,29.83,WSW,251,1.0,2.0,69,0.00,,,0.07,Wunderground v.1.15,2013-06-28 00:22:00,
2013-06-27 19:27:00,85.5,74.6,29.83,WSW,255,1.0,2.0,70,0.00,,,0.07,Wunderground v.1.15,2013-06-28 00:27:00,
2013-06-27 19:32:00,85.1,74.6,29.83,WSW,255,0.0,0.0,71,0.00,,,0.07,Wunderground v.1.15,2013-06-28 00:32:00,
2013-06-27 19:39:00,84.5,74.9,29.82,WSW,255,0.0,0.0,73,0.00,,,0.07,Wunderground v.1.15,2013-06-28 00:39:00,
2013-06-27 19:45:00,83.8,74.6,29.82,WSW,257,1.0,2.0,74,0.00,,,0.07,Wunderground v.1.15,2013-06-28 00:45:00,